Location: Fontevrault
(47.1823°N, 0.0493°E)
Time: 03:40:31
(UTC+00:00)

Cosmos 1459 Rocket - Pass Details

Date: 23 October 2021
Orbit: 936 x 1000 km, 83.0° (Epoch: 01 December)

Event Time Altitude Azimuth Distance (km) Brightness Sun altitude
Rises 19:37:03 0° 185° (S) 3,663 6.9 -27.6°
Reaches altitude 10° 19:39:33 10° 185° (S) 2,710 6.2 -28.0°
Enters shadow 19:41:44 23° 185° (S) 1,913 5.4 -28.4°
Exits shadow 19:45:18 77° 174° (S) 989 3.8 -29.0°
Maximum altitude 19:45:46 87° 97° (E) 969 3.8 -29.1°
Drops below altitude 10° 19:51:56 10° 9° (N) 2,686 6.4 -30.1°
Sets 19:54:25 0° 10° (N) 3,628 7.1 -30.5°
